Year,Month,Day,Hour,Minute,Value (Times are PST for temperature in C)
2013,07,14,00,00,14.10
2013,07,14,00,01,14.10
2013,07,14,00,02,14.10
2013,07,14,00,03,14.10
2013,07,14,00,04,14.20
2013,07,14,00,05,14.20
2013,07,14,00,06,14.20
2013,07,14,00,07,14.20
2013,07,14,00,08,14.20
2013,07,14,00,09,14.20
2013,07,14,00,10,14.20
2013,07,14,00,11,14.20
2013,07,14,00,12,14.20
2013,07,14,00,13,14.20
2013,07,14,00,14,14.20
2013,07,14,00,15,14.20
2013,07,14,00,16,14.20
2013,07,14,00,17,14.20
2013,07,14,00,18,14.20
2013,07,14,00,19,14.20
2013,07,14,00,20,14.10
2013,07,14,00,21,14.20
2013,07,14,00,22,14.20
2013,07,14,00,23,14.10
2013,07,14,00,24,14.10
2013,07,14,00,25,14.10
2013,07,14,00,26,14.10
2013,07,14,00,27,14.10
2013,07,14,00,28,14.10
2013,07,14,00,29,14.10
2013,07,14,00,30,14.10
2013,07,14,00,31,14.10
2013,07,14,00,32,14.10
2013,07,14,00,33,14.10
2013,07,14,00,34,14.10
2013,07,14,00,35,14.10
2013,07,14,00,36,14.00
2013,07,14,00,37,14.00
2013,07,14,00,38,14.00
2013,07,14,00,39,14.00
2013,07,14,00,40,14.00
2013,07,14,00,41,14.00
2013,07,14,00,42,14.00
2013,07,14,00,43,13.90
2013,07,14,00,44,13.90
2013,07,14,00,45,13.90
2013,07,14,00,46,13.90
2013,07,14,00,47,13.90
2013,07,14,00,48,13.90
2013,07,14,00,49,13.80
2013,07,14,00,50,13.80
2013,07,14,00,51,13.80
2013,07,14,00,52,13.70
2013,07,14,00,53,13.70
2013,07,14,00,54,13.70
2013,07,14,00,55,13.70
2013,07,14,00,56,13.70
2013,07,14,00,57,13.60
2013,07,14,00,58,13.60
2013,07,14,00,59,13.60
2013,07,14,01,00,13.50
2013,07,14,01,01,13.50
2013,07,14,01,02,13.50
2013,07,14,01,03,13.50
2013,07,14,01,04,13.40
2013,07,14,01,05,13.40
2013,07,14,01,06,13.40
2013,07,14,01,07,13.40
2013,07,14,01,08,13.40
2013,07,14,01,09,13.40
2013,07,14,01,10,13.40
2013,07,14,01,11,13.40
2013,07,14,01,12,13.40
2013,07,14,01,13,13.40
2013,07,14,01,14,13.40
2013,07,14,01,15,13.30
2013,07,14,01,16,13.30
2013,07,14,01,17,13.30
2013,07,14,01,18,13.30
2013,07,14,01,19,13.30
2013,07,14,01,20,13.30
2013,07,14,01,21,13.30
2013,07,14,01,22,13.30
2013,07,14,01,23,13.20
2013,07,14,01,24,13.20
2013,07,14,01,25,13.20
2013,07,14,01,26,13.10
2013,07,14,01,27,13.10
2013,07,14,01,28,13.10
2013,07,14,01,29,13.10
2013,07,14,01,30,13.00
2013,07,14,01,31,13.00
2013,07,14,01,32,13.00
2013,07,14,01,33,12.90
2013,07,14,01,34,12.90
2013,07,14,01,35,12.90
2013,07,14,01,36,12.80
2013,07,14,01,37,12.80
2013,07,14,01,38,12.80
2013,07,14,01,39,12.80
2013,07,14,01,40,12.80
2013,07,14,01,41,12.70
2013,07,14,01,42,12.70
2013,07,14,01,43,12.70
2013,07,14,01,44,12.70
2013,07,14,01,45,12.70
2013,07,14,01,46,12.60
2013,07,14,01,47,12.60
2013,07,14,01,48,12.60
2013,07,14,01,49,12.50
2013,07,14,01,50,12.50
2013,07,14,01,51,12.50
2013,07,14,01,52,12.50
2013,07,14,01,53,12.40
2013,07,14,01,54,12.40
2013,07,14,01,55,12.40
2013,07,14,01,56,12.40
2013,07,14,01,57,12.30
2013,07,14,01,58,12.30
2013,07,14,01,59,12.30
2013,07,14,02,00,12.30
2013,07,14,02,01,12.30
2013,07,14,02,02,12.30
2013,07,14,02,03,12.30
2013,07,14,02,04,12.20
2013,07,14,02,05,12.20
2013,07,14,02,06,12.20
2013,07,14,02,07,12.20
2013,07,14,02,08,12.10
2013,07,14,02,09,12.10
2013,07,14,02,10,12.10
2013,07,14,02,11,12.10
2013,07,14,02,12,12.10
2013,07,14,02,13,12.10
2013,07,14,02,14,12.20
2013,07,14,02,15,12.20
2013,07,14,02,16,12.20
2013,07,14,02,17,12.30
2013,07,14,02,18,12.30
2013,07,14,02,19,12.30
2013,07,14,02,20,12.30
2013,07,14,02,21,12.40
2013,07,14,02,22,12.40
2013,07,14,02,23,12.40
2013,07,14,02,24,12.40
2013,07,14,02,25,12.50
2013,07,14,02,26,12.50
2013,07,14,02,27,12.50
2013,07,14,02,28,12.50
2013,07,14,02,29,12.50
2013,07,14,02,30,12.50
2013,07,14,02,31,12.50
2013,07,14,02,32,12.50
2013,07,14,02,33,12.50
2013,07,14,02,34,12.50
2013,07,14,02,35,12.50
2013,07,14,02,36,12.40
2013,07,14,02,37,12.40
2013,07,14,02,38,12.40
2013,07,14,02,39,12.40
2013,07,14,02,40,12.40
2013,07,14,02,41,12.40
2013,07,14,02,42,12.40
2013,07,14,02,43,12.40
2013,07,14,02,44,12.40
2013,07,14,02,45,12.40
2013,07,14,02,46,12.40
2013,07,14,02,47,12.40
2013,07,14,02,48,12.40
2013,07,14,02,49,12.40
2013,07,14,02,50,12.40
2013,07,14,02,51,12.40
2013,07,14,02,52,12.40
2013,07,14,02,53,12.40
2013,07,14,02,54,12.40
2013,07,14,02,55,12.40
2013,07,14,02,56,12.40
2013,07,14,02,57,12.40
2013,07,14,02,58,12.40
2013,07,14,02,59,12.40
2013,07,14,03,00,12.40
2013,07,14,03,01,12.40
2013,07,14,03,02,12.40
2013,07,14,03,03,12.40
2013,07,14,03,04,12.40
2013,07,14,03,05,12.40
2013,07,14,03,06,12.40
2013,07,14,03,07,12.40
2013,07,14,03,08,12.40
2013,07,14,03,09,12.30
2013,07,14,03,10,12.30
2013,07,14,03,11,12.30
2013,07,14,03,12,12.30
2013,07,14,03,13,12.30
2013,07,14,03,14,12.30
2013,07,14,03,15,12.30
2013,07,14,03,16,12.20
2013,07,14,03,17,12.20
2013,07,14,03,18,12.20
2013,07,14,03,19,12.20
2013,07,14,03,20,12.20
2013,07,14,03,21,12.20
2013,07,14,03,22,12.20
2013,07,14,03,23,12.20
2013,07,14,03,24,12.20
2013,07,14,03,25,12.20
2013,07,14,03,26,12.20
2013,07,14,03,27,12.20
2013,07,14,03,28,12.20
2013,07,14,03,29,12.20
2013,07,14,03,30,12.20
2013,07,14,03,31,12.20
2013,07,14,03,32,12.20
2013,07,14,03,33,12.20
2013,07,14,03,34,12.20
2013,07,14,03,35,12.20
2013,07,14,03,36,12.10
2013,07,14,03,37,12.10
2013,07,14,03,38,12.00
2013,07,14,03,39,12.00
2013,07,14,03,40,11.90
2013,07,14,03,41,11.80
2013,07,14,03,42,11.80
2013,07,14,03,43,11.80
2013,07,14,03,44,11.80
2013,07,14,03,45,11.80
2013,07,14,03,46,11.80
2013,07,14,03,47,11.70
2013,07,14,03,48,11.70
2013,07,14,03,49,11.70
2013,07,14,03,50,11.70
2013,07,14,03,51,11.70
2013,07,14,03,52,11.70
2013,07,14,03,53,11.60
2013,07,14,03,54,11.60
2013,07,14,03,55,11.60
2013,07,14,03,56,11.60
2013,07,14,03,57,11.60
2013,07,14,03,58,11.60
2013,07,14,03,59,11.60
2013,07,14,04,00,11.60
2013,07,14,04,01,11.60
2013,07,14,04,02,11.60
2013,07,14,04,03,11.50
2013,07,14,04,04,11.40
2013,07,14,04,05,11.40
2013,07,14,04,06,11.50
2013,07,14,04,07,11.60
2013,07,14,04,08,11.60
2013,07,14,04,09,11.60
2013,07,14,04,10,11.60
2013,07,14,04,11,11.60
2013,07,14,04,12,11.60
2013,07,14,04,13,11.60
2013,07,14,04,14,11.60
2013,07,14,04,15,11.60
2013,07,14,04,16,11.60
2013,07,14,04,17,11.60
2013,07,14,04,18,11.60
2013,07,14,04,19,11.60
2013,07,14,04,20,11.50
2013,07,14,04,21,11.40
2013,07,14,04,22,11.40
2013,07,14,04,23,11.40
2013,07,14,04,24,11.40
2013,07,14,04,25,11.40
2013,07,14,04,26,11.40
2013,07,14,04,27,11.40
2013,07,14,04,28,11.40
2013,07,14,04,29,11.40
2013,07,14,04,30,11.30
2013,07,14,04,31,11.30
2013,07,14,04,32,11.30
2013,07,14,04,33,11.20
2013,07,14,04,34,11.20
2013,07,14,04,35,11.20
2013,07,14,04,36,11.20
2013,07,14,04,37,11.20
2013,07,14,04,38,11.10
2013,07,14,04,39,11.10
2013,07,14,04,40,11.10
2013,07,14,04,41,11.10
2013,07,14,04,42,11.10
2013,07,14,04,43,11.10
2013,07,14,04,44,11.20
2013,07,14,04,45,11.30
2013,07,14,04,46,11.30
2013,07,14,04,47,11.40
2013,07,14,04,48,11.40
2013,07,14,04,49,11.40
2013,07,14,04,50,11.40
2013,07,14,04,51,11.40
2013,07,14,04,52,11.40
2013,07,14,04,53,11.50
2013,07,14,04,54,11.60
2013,07,14,04,55,11.60
2013,07,14,04,56,11.50
2013,07,14,04,57,11.40
2013,07,14,04,58,11.40
2013,07,14,04,59,11.40
2013,07,14,05,00,11.40
2013,07,14,05,01,11.40
2013,07,14,05,02,11.40
2013,07,14,05,03,11.40
2013,07,14,05,04,11.40
2013,07,14,05,05,11.40
2013,07,14,05,06,11.40
2013,07,14,05,07,11.40
2013,07,14,05,08,11.40
2013,07,14,05,09,11.30
2013,07,14,05,10,11.30
2013,07,14,05,11,11.30
2013,07,14,05,12,11.30
2013,07,14,05,13,11.30
2013,07,14,05,14,11.30
2013,07,14,05,15,11.20
2013,07,14,05,16,11.20
2013,07,14,05,17,11.20
2013,07,14,05,18,11.20
2013,07,14,05,19,11.10
2013,07,14,05,20,11.10
2013,07,14,05,21,11.10
2013,07,14,05,22,11.10
2013,07,14,05,23,11.10
2013,07,14,05,24,11.10
2013,07,14,05,25,11.10
2013,07,14,05,26,11.10
2013,07,14,05,27,11.10
2013,07,14,05,28,11.10
2013,07,14,05,29,11.10
2013,07,14,05,30,11.10
2013,07,14,05,31,11.10
2013,07,14,05,32,11.10
2013,07,14,05,33,11.10
2013,07,14,05,34,11.10
2013,07,14,05,35,11.10
2013,07,14,05,36,11.10
2013,07,14,05,37,11.10
2013,07,14,05,38,11.10
2013,07,14,05,39,11.00
2013,07,14,05,40,10.90
2013,07,14,05,41,10.90
2013,07,14,05,42,10.90
2013,07,14,05,43,10.90
2013,07,14,05,44,10.90
2013,07,14,05,45,10.90
2013,07,14,05,46,10.90
2013,07,14,05,47,10.90
2013,07,14,05,48,10.90
2013,07,14,05,49,10.90
2013,07,14,05,50,10.90
2013,07,14,05,51,10.90
2013,07,14,05,52,10.90
2013,07,14,05,53,10.90
2013,07,14,05,54,10.90
2013,07,14,05,55,10.90
2013,07,14,05,56,11.00
2013,07,14,05,57,11.10
2013,07,14,05,58,11.10
2013,07,14,05,59,11.10
2013,07,14,06,00,11.10
2013,07,14,06,01,11.10
2013,07,14,06,02,11.10
2013,07,14,06,03,11.10
2013,07,14,06,04,11.10
2013,07,14,06,05,11.10
2013,07,14,06,06,11.10
2013,07,14,06,07,11.10
2013,07,14,06,08,11.10
2013,07,14,06,09,11.10
2013,07,14,06,10,11.10
2013,07,14,06,11,11.10
2013,07,14,06,12,11.10
2013,07,14,06,13,11.10
2013,07,14,06,14,11.10
2013,07,14,06,15,11.10
2013,07,14,06,16,11.10
2013,07,14,06,17,11.20
2013,07,14,06,18,11.20
2013,07,14,06,19,11.20
2013,07,14,06,20,11.30
2013,07,14,06,21,11.30
2013,07,14,06,22,11.40
2013,07,14,06,23,11.40
2013,07,14,06,24,11.50
2013,07,14,06,25,11.60
2013,07,14,06,26,11.70
2013,07,14,06,27,11.70
2013,07,14,06,28,11.70
2013,07,14,06,29,11.80
2013,07,14,06,30,11.80
2013,07,14,06,31,11.80
2013,07,14,06,32,11.80
2013,07,14,06,33,11.90
2013,07,14,06,34,11.90
2013,07,14,06,35,11.90
2013,07,14,06,36,11.90
2013,07,14,06,37,11.90
2013,07,14,06,38,11.90
2013,07,14,06,39,11.90
2013,07,14,06,40,12.00
2013,07,14,06,41,12.00
2013,07,14,06,42,12.00
2013,07,14,06,43,12.00
2013,07,14,06,44,12.00
2013,07,14,06,45,12.00
2013,07,14,06,46,12.00
2013,07,14,06,47,12.00
2013,07,14,06,48,12.10
2013,07,14,06,49,12.10
2013,07,14,06,50,12.10
2013,07,14,06,51,12.10
2013,07,14,06,52,12.10
2013,07,14,06,53,12.10
2013,07,14,06,54,12.20
2013,07,14,06,55,12.20
2013,07,14,06,56,12.20
2013,07,14,06,57,12.20
2013,07,14,06,58,12.20
2013,07,14,06,59,12.20
2013,07,14,07,00,12.30
2013,07,14,07,01,12.30
2013,07,14,07,02,12.30
2013,07,14,07,03,12.40
2013,07,14,07,04,12.40
2013,07,14,07,05,12.50
2013,07,14,07,06,12.60
2013,07,14,07,07,12.80
2013,07,14,07,08,12.90
2013,07,14,07,09,13.00
2013,07,14,07,10,13.10
2013,07,14,07,11,13.20
2013,07,14,07,12,13.30
2013,07,14,07,13,13.40
2013,07,14,07,14,13.50
2013,07,14,07,15,13.60
2013,07,14,07,16,13.60
2013,07,14,07,17,13.60
2013,07,14,07,18,13.70
2013,07,14,07,19,13.70
2013,07,14,07,20,13.70
2013,07,14,07,21,13.70
2013,07,14,07,22,13.70
2013,07,14,07,23,13.70
2013,07,14,07,24,13.70
2013,07,14,07,25,13.70
2013,07,14,07,26,13.70
2013,07,14,07,27,13.80
2013,07,14,07,28,13.80
2013,07,14,07,29,13.90
2013,07,14,07,30,14.00
2013,07,14,07,31,14.20
2013,07,14,07,32,14.30
2013,07,14,07,33,14.50
2013,07,14,07,34,14.60
2013,07,14,07,35,14.80
2013,07,14,07,36,14.90
2013,07,14,07,37,15.10
2013,07,14,07,38,15.20
2013,07,14,07,39,15.30
2013,07,14,07,40,15.30
2013,07,14,07,41,15.30
2013,07,14,07,42,15.30
2013,07,14,07,43,15.20
2013,07,14,07,44,15.10
2013,07,14,07,45,15.00
2013,07,14,07,46,15.00
2013,07,14,07,47,14.90
2013,07,14,07,48,14.90
2013,07,14,07,49,14.90
2013,07,14,07,50,14.80
2013,07,14,07,51,14.70
2013,07,14,07,52,14.60
2013,07,14,07,53,14.60
2013,07,14,07,54,14.50
2013,07,14,07,55,14.50
2013,07,14,07,56,14.40
2013,07,14,07,57,14.30
2013,07,14,07,58,14.30
2013,07,14,07,59,14.20
2013,07,14,08,00,14.20
2013,07,14,08,01,14.20
2013,07,14,08,02,14.20
2013,07,14,08,03,14.20
2013,07,14,08,04,14.20
2013,07,14,08,05,14.10
2013,07,14,08,06,14.10
2013,07,14,08,07,14.10
2013,07,14,08,08,14.10
2013,07,14,08,09,14.00
2013,07,14,08,10,14.00
2013,07,14,08,11,14.00
2013,07,14,08,12,14.00
2013,07,14,08,13,14.10
2013,07,14,08,14,14.10
2013,07,14,08,15,14.20
2013,07,14,08,16,14.20
2013,07,14,08,17,14.20
2013,07,14,08,18,14.20
2013,07,14,08,19,14.30
2013,07,14,08,20,14.30
2013,07,14,08,21,14.40
2013,07,14,08,22,14.40
2013,07,14,08,23,14.50
2013,07,14,08,24,14.50
2013,07,14,08,25,14.60
2013,07,14,08,26,14.60
2013,07,14,08,27,14.70
2013,07,14,08,28,14.80
2013,07,14,08,29,14.80
2013,07,14,08,30,14.80
2013,07,14,08,31,14.90
2013,07,14,08,32,14.90
2013,07,14,08,33,15.00
2013,07,14,08,34,15.00
2013,07,14,08,35,15.00
2013,07,14,08,36,15.10
2013,07,14,08,37,15.10
2013,07,14,08,38,15.20
2013,07,14,08,39,15.30
2013,07,14,08,40,15.30
2013,07,14,08,41,15.30
2013,07,14,08,42,15.40
2013,07,14,08,43,15.40
2013,07,14,08,44,15.40
2013,07,14,08,45,15.50
2013,07,14,08,46,15.60
2013,07,14,08,47,15.60
2013,07,14,08,48,15.70
2013,07,14,08,49,15.70
2013,07,14,08,50,15.80
2013,07,14,08,51,15.90
2013,07,14,08,52,16.00
2013,07,14,08,53,16.10
2013,07,14,08,54,16.20
2013,07,14,08,55,16.20
2013,07,14,08,56,16.30
2013,07,14,08,57,16.30
2013,07,14,08,58,16.20
2013,07,14,08,59,16.10
2013,07,14,09,00,16.10
2013,07,14,09,01,16.10
2013,07,14,09,02,15.90
2013,07,14,09,03,15.90
2013,07,14,09,04,16.00
2013,07,14,09,05,16.10
2013,07,14,09,06,16.10
2013,07,14,09,07,16.20
2013,07,14,09,08,16.20
2013,07,14,09,09,16.30
2013,07,14,09,10,16.40
2013,07,14,09,11,16.50
2013,07,14,09,12,16.60
2013,07,14,09,13,16.60
2013,07,14,09,14,16.60
2013,07,14,09,15,16.50
2013,07,14,09,16,16.50
2013,07,14,09,17,16.50
2013,07,14,09,18,16.50
2013,07,14,09,19,16.50
2013,07,14,09,20,16.40
2013,07,14,09,21,16.40
2013,07,14,09,22,16.40
2013,07,14,09,23,16.40
2013,07,14,09,24,16.40
2013,07,14,09,25,16.30
2013,07,14,09,26,16.30
2013,07,14,09,27,16.40
2013,07,14,09,28,16.40
2013,07,14,09,29,16.50
2013,07,14,09,30,16.50
2013,07,14,09,31,16.60
2013,07,14,09,32,16.60
2013,07,14,09,33,16.70
2013,07,14,09,34,16.70
2013,07,14,09,35,16.70
2013,07,14,09,36,16.70
2013,07,14,09,37,16.60
2013,07,14,09,38,16.50
2013,07,14,09,39,16.40
2013,07,14,09,40,16.20
2013,07,14,09,41,16.20
2013,07,14,09,42,16.10
2013,07,14,09,43,16.10
2013,07,14,09,44,16.10
2013,07,14,09,45,16.00
2013,07,14,09,46,15.90
2013,07,14,09,47,15.80
2013,07,14,09,48,15.80
2013,07,14,09,49,15.90
2013,07,14,09,50,15.90
2013,07,14,09,51,15.80
2013,07,14,09,52,15.80
2013,07,14,09,53,15.80
2013,07,14,09,54,15.80
2013,07,14,09,55,15.80
2013,07,14,09,56,15.80
2013,07,14,09,57,15.90
2013,07,14,09,58,16.00
2013,07,14,09,59,16.10
2013,07,14,10,00,16.10
2013,07,14,10,01,16.20
2013,07,14,10,02,16.30
2013,07,14,10,03,16.20
2013,07,14,10,04,16.30
2013,07,14,10,05,16.20
2013,07,14,10,06,16.20
2013,07,14,10,07,16.20
2013,07,14,10,08,16.20
2013,07,14,10,09,16.20
2013,07,14,10,10,16.10
2013,07,14,10,11,16.10
2013,07,14,10,12,16.00
2013,07,14,10,13,15.90
2013,07,14,10,14,15.80
2013,07,14,10,15,15.80
2013,07,14,10,16,15.80
2013,07,14,10,17,15.80
2013,07,14,10,18,15.80
2013,07,14,10,19,15.90
2013,07,14,10,20,16.00
2013,07,14,10,21,16.10
2013,07,14,10,22,16.10
2013,07,14,10,23,16.00
2013,07,14,10,24,15.90
2013,07,14,10,25,16.00
2013,07,14,10,26,16.10
2013,07,14,10,27,16.20
2013,07,14,10,28,16.30
2013,07,14,10,29,16.30
2013,07,14,10,30,16.40
2013,07,14,10,31,16.60
2013,07,14,10,32,16.60
2013,07,14,10,33,16.60
2013,07,14,10,34,16.70
2013,07,14,10,35,16.60
2013,07,14,10,36,16.60
2013,07,14,10,37,16.70
2013,07,14,10,38,16.70
2013,07,14,10,39,16.70
2013,07,14,10,40,16.70
2013,07,14,10,41,16.70
2013,07,14,10,42,16.70
2013,07,14,10,43,16.70
2013,07,14,10,44,16.70
2013,07,14,10,45,16.70
2013,07,14,10,46,16.70
2013,07,14,10,47,16.70
2013,07,14,10,48,16.70
2013,07,14,10,49,16.60
2013,07,14,10,50,16.50
2013,07,14,10,51,16.40
2013,07,14,10,52,16.40
2013,07,14,10,53,16.40
2013,07,14,10,54,16.50
2013,07,14,10,55,16.60
2013,07,14,10,56,16.70
2013,07,14,10,57,16.60
2013,07,14,10,58,16.50
2013,07,14,10,59,16.50
2013,07,14,11,00,16.50
2013,07,14,11,01,16.40
2013,07,14,11,02,16.40
2013,07,14,11,03,16.60
2013,07,14,11,04,16.60
2013,07,14,11,05,16.60
2013,07,14,11,06,16.60
2013,07,14,11,07,16.70
2013,07,14,11,08,16.70
2013,07,14,11,09,16.70
2013,07,14,11,10,16.70
2013,07,14,11,11,16.90
2013,07,14,11,12,17.10
2013,07,14,11,13,17.20
2013,07,14,11,14,17.20
2013,07,14,11,15,17.20
2013,07,14,11,16,17.20
2013,07,14,11,17,17.20
2013,07,14,11,18,17.10
2013,07,14,11,19,17.10
2013,07,14,11,20,17.00
2013,07,14,11,21,16.90
2013,07,14,11,22,16.90
2013,07,14,11,23,17.00
2013,07,14,11,24,17.10
2013,07,14,11,25,17.20
2013,07,14,11,26,17.30
2013,07,14,11,27,17.50
2013,07,14,11,28,17.60
2013,07,14,11,29,17.70
2013,07,14,11,30,17.80
2013,07,14,11,31,17.80
2013,07,14,11,32,17.80
2013,07,14,11,33,17.80
2013,07,14,11,34,17.70
2013,07,14,11,35,17.60
2013,07,14,11,36,17.50
2013,07,14,11,37,17.40
2013,07,14,11,38,17.40
2013,07,14,11,39,17.40
2013,07,14,11,40,17.40
2013,07,14,11,41,17.30
2013,07,14,11,42,17.10
2013,07,14,11,43,17.00
2013,07,14,11,44,16.90
2013,07,14,11,45,16.90
2013,07,14,11,46,16.80
2013,07,14,11,47,16.80
2013,07,14,11,48,16.80
2013,07,14,11,49,16.90
2013,07,14,11,50,16.90
2013,07,14,11,51,16.90
2013,07,14,11,52,17.00
2013,07,14,11,53,17.30
2013,07,14,11,54,17.40
2013,07,14,11,55,17.60
2013,07,14,11,56,17.60
2013,07,14,11,57,17.60
2013,07,14,11,58,17.50
2013,07,14,11,59,17.40
2013,07,14,12,00,17.40
2013,07,14,12,01,17.40
2013,07,14,12,02,17.30
2013,07,14,12,03,17.20
2013,07,14,12,04,17.00
2013,07,14,12,05,16.70
2013,07,14,12,06,16.50
2013,07,14,12,07,16.40
2013,07,14,12,08,16.40
2013,07,14,12,09,16.40
2013,07,14,12,10,16.50
2013,07,14,12,11,16.60
2013,07,14,12,12,16.70
2013,07,14,12,13,16.70
2013,07,14,12,14,16.60
2013,07,14,12,15,16.40
2013,07,14,12,16,16.30
2013,07,14,12,17,16.30
2013,07,14,12,18,16.30
2013,07,14,12,19,16.30
2013,07,14,12,20,16.40
2013,07,14,12,21,16.40
2013,07,14,12,22,16.50
2013,07,14,12,23,16.70
2013,07,14,12,24,16.80
2013,07,14,12,25,16.80
2013,07,14,12,26,16.90
2013,07,14,12,27,16.80
2013,07,14,12,28,16.60
2013,07,14,12,29,16.50
2013,07,14,12,30,16.40
2013,07,14,12,31,16.40
2013,07,14,12,32,16.30
2013,07,14,12,33,16.20
2013,07,14,12,34,16.10
2013,07,14,12,35,16.20
2013,07,14,12,36,16.30
2013,07,14,12,37,16.30
2013,07,14,12,38,16.40
2013,07,14,12,39,16.20
2013,07,14,12,40,16.10
2013,07,14,12,41,16.10
2013,07,14,12,42,16.10
2013,07,14,12,43,16.20
2013,07,14,12,44,16.10
2013,07,14,12,45,16.10
2013,07,14,12,46,16.00
2013,07,14,12,47,15.90
2013,07,14,12,48,15.70
2013,07,14,12,49,15.60
2013,07,14,12,50,15.50
2013,07,14,12,51,15.60
2013,07,14,12,52,15.40
2013,07,14,12,53,15.20
2013,07,14,12,54,15.10
2013,07,14,12,55,14.90
2013,07,14,12,56,14.70
2013,07,14,12,57,14.50
2013,07,14,12,58,14.30
2013,07,14,12,59,14.20
2013,07,14,13,00,14.00
2013,07,14,13,01,14.00
2013,07,14,13,02,14.00
2013,07,14,13,03,14.10
2013,07,14,13,04,14.20
2013,07,14,13,05,14.20
2013,07,14,13,06,14.30
2013,07,14,13,07,14.50
2013,07,14,13,08,14.60
2013,07,14,13,09,14.80
2013,07,14,13,10,14.90
2013,07,14,13,11,15.00
2013,07,14,13,12,15.00
2013,07,14,13,13,15.10
2013,07,14,13,14,15.20
2013,07,14,13,15,15.10
2013,07,14,13,16,15.00
2013,07,14,13,17,14.90
2013,07,14,13,18,14.70
2013,07,14,13,19,14.60
2013,07,14,13,20,14.50
2013,07,14,13,21,14.50
2013,07,14,13,22,14.40
2013,07,14,13,23,14.50
2013,07,14,13,24,14.50
2013,07,14,13,25,14.60
2013,07,14,13,26,14.60
2013,07,14,13,27,14.60
2013,07,14,13,28,14.70
2013,07,14,13,29,14.80
2013,07,14,13,30,14.80
2013,07,14,13,31,14.80
2013,07,14,13,32,14.80
2013,07,14,13,33,14.80
2013,07,14,13,34,14.80
2013,07,14,13,35,14.80
2013,07,14,13,36,14.70
2013,07,14,13,37,14.60
2013,07,14,13,38,14.50
2013,07,14,13,39,14.30
2013,07,14,13,40,14.20
2013,07,14,13,41,14.10
2013,07,14,13,42,14.00
2013,07,14,13,43,14.10
2013,07,14,13,44,14.10
2013,07,14,13,45,14.20
2013,07,14,13,46,14.30
2013,07,14,13,47,14.30
2013,07,14,13,48,14.10
2013,07,14,13,49,14.10
2013,07,14,13,50,14.20
2013,07,14,13,51,14.20
2013,07,14,13,52,14.10
2013,07,14,13,53,14.10
2013,07,14,13,54,14.10
2013,07,14,13,55,14.10
2013,07,14,13,56,14.10
2013,07,14,13,57,14.10
2013,07,14,13,58,14.10
2013,07,14,13,59,14.20
2013,07,14,14,00,14.10
2013,07,14,14,01,13.90
2013,07,14,14,02,13.90
2013,07,14,14,03,14.00
2013,07,14,14,04,13.90
2013,07,14,14,05,13.90
2013,07,14,14,06,13.90
2013,07,14,14,07,14.00
2013,07,14,14,08,14.00
2013,07,14,14,09,14.00
2013,07,14,14,10,14.10
2013,07,14,14,11,14.10
2013,07,14,14,12,14.10
2013,07,14,14,13,14.10
2013,07,14,14,14,14.10
2013,07,14,14,15,14.10
2013,07,14,14,16,14.10
2013,07,14,14,17,14.20
2013,07,14,14,18,14.20
2013,07,14,14,19,14.10
2013,07,14,14,20,14.10
2013,07,14,14,21,14.10
2013,07,14,14,22,14.10
2013,07,14,14,23,14.00
2013,07,14,14,24,14.00
2013,07,14,14,25,14.00
2013,07,14,14,26,14.00
2013,07,14,14,27,14.10
2013,07,14,14,28,14.10
2013,07,14,14,29,14.10
2013,07,14,14,30,14.10
2013,07,14,14,31,14.10
2013,07,14,14,32,14.10
2013,07,14,14,33,14.10
2013,07,14,14,34,14.10
2013,07,14,14,35,14.00
2013,07,14,14,36,13.90
2013,07,14,14,37,13.90
2013,07,14,14,38,13.90
2013,07,14,14,39,14.00
2013,07,14,14,40,14.00
2013,07,14,14,41,14.00
2013,07,14,14,42,14.00
2013,07,14,14,43,14.00
2013,07,14,14,44,13.90
2013,07,14,14,45,13.80
2013,07,14,14,46,13.80
2013,07,14,14,47,13.90
2013,07,14,14,48,13.80
2013,07,14,14,49,13.90
2013,07,14,14,50,13.90
2013,07,14,14,51,13.90
2013,07,14,14,52,13.80
2013,07,14,14,53,13.70
2013,07,14,14,54,13.70
2013,07,14,14,55,13.60
2013,07,14,14,56,13.60
2013,07,14,14,57,13.50
2013,07,14,14,58,13.60
2013,07,14,14,59,13.50
2013,07,14,15,00,13.50
2013,07,14,15,01,13.60
2013,07,14,15,02,13.50
2013,07,14,15,03,13.50
2013,07,14,15,04,13.60
2013,07,14,15,05,13.60
2013,07,14,15,06,13.60
2013,07,14,15,07,13.60
2013,07,14,15,08,13.60
2013,07,14,15,09,13.60
2013,07,14,15,10,13.60
2013,07,14,15,11,13.60
2013,07,14,15,12,13.60
2013,07,14,15,13,13.50
2013,07,14,15,14,13.60
2013,07,14,15,15,13.60
2013,07,14,15,16,13.60
2013,07,14,15,17,13.50
2013,07,14,15,18,13.50
2013,07,14,15,19,13.50
2013,07,14,15,20,13.50
2013,07,14,15,21,13.50
2013,07,14,15,22,13.50
2013,07,14,15,23,13.60
2013,07,14,15,24,13.60
2013,07,14,15,25,13.60
2013,07,14,15,26,13.60
2013,07,14,15,27,13.70
2013,07,14,15,28,13.70
2013,07,14,15,29,13.90
2013,07,14,15,30,13.90
2013,07,14,15,31,13.80
2013,07,14,15,32,13.80
2013,07,14,15,33,13.90
2013,07,14,15,34,13.80
2013,07,14,15,35,13.80
2013,07,14,15,36,13.70
2013,07,14,15,37,13.60
2013,07,14,15,38,13.60
2013,07,14,15,39,13.60
2013,07,14,15,40,13.60
2013,07,14,15,41,13.60
2013,07,14,15,42,13.60
2013,07,14,15,43,13.50
2013,07,14,15,44,13.50
2013,07,14,15,45,13.60
2013,07,14,15,46,13.70
2013,07,14,15,47,13.80
2013,07,14,15,48,13.80
2013,07,14,15,49,13.90
2013,07,14,15,50,13.90
2013,07,14,15,51,13.90
2013,07,14,15,52,14.00
2013,07,14,15,53,14.00
2013,07,14,15,54,14.00
2013,07,14,15,55,14.10
2013,07,14,15,56,14.20
2013,07,14,15,57,14.20
2013,07,14,15,58,14.20
2013,07,14,15,59,14.20
2013,07,14,16,00,14.20
2013,07,14,16,01,14.40
2013,07,14,16,02,14.50
2013,07,14,16,03,14.70
2013,07,14,16,04,14.90
2013,07,14,16,05,15.10
2013,07,14,16,06,15.20
2013,07,14,16,07,15.30
2013,07,14,16,08,15.30
2013,07,14,16,09,15.50
2013,07,14,16,10,15.60
2013,07,14,16,11,15.60
2013,07,14,16,12,15.70
2013,07,14,16,13,15.80
2013,07,14,16,14,15.90
2013,07,14,16,15,15.90
2013,07,14,16,16,16.00
2013,07,14,16,17,16.10
2013,07,14,16,18,16.20
2013,07,14,16,19,16.20
2013,07,14,16,20,16.30
2013,07,14,16,21,16.30
2013,07,14,16,22,16.30
2013,07,14,16,23,16.30
2013,07,14,16,24,16.40
2013,07,14,16,25,16.40
2013,07,14,16,26,16.60
2013,07,14,16,27,16.80
2013,07,14,16,28,17.00
2013,07,14,16,29,17.20
2013,07,14,16,30,17.40
2013,07,14,16,31,17.70
2013,07,14,16,32,17.90
2013,07,14,16,33,18.00
2013,07,14,16,34,18.10
2013,07,14,16,35,18.20
2013,07,14,16,36,18.20
2013,07,14,16,37,18.20
2013,07,14,16,38,18.30
2013,07,14,16,39,18.40
2013,07,14,16,40,18.50
2013,07,14,16,41,18.40
2013,07,14,16,42,18.30
2013,07,14,16,43,18.40
2013,07,14,16,44,18.50
2013,07,14,16,45,18.50
2013,07,14,16,46,18.60
2013,07,14,16,47,18.70
2013,07,14,16,48,18.70
2013,07,14,16,49,18.80
2013,07,14,16,50,18.90
2013,07,14,16,51,19.00
2013,07,14,16,52,19.10
2013,07,14,16,53,19.30
2013,07,14,16,54,19.40
2013,07,14,16,55,19.60
2013,07,14,16,56,19.80
2013,07,14,16,57,20.00
2013,07,14,16,58,20.20
2013,07,14,16,59,20.40
2013,07,14,17,00,20.40
2013,07,14,17,01,20.50
2013,07,14,17,02,20.60
2013,07,14,17,03,20.60
2013,07,14,17,04,20.70
2013,07,14,17,05,20.80
2013,07,14,17,06,20.90
2013,07,14,17,07,21.00
2013,07,14,17,08,21.00
2013,07,14,17,09,21.10
2013,07,14,17,10,21.20
2013,07,14,17,11,21.30
2013,07,14,17,12,21.30
2013,07,14,17,13,21.50
2013,07,14,17,14,21.60
2013,07,14,17,15,21.80
2013,07,14,17,16,22.00
2013,07,14,17,17,22.10
2013,07,14,17,18,22.20
2013,07,14,17,19,22.30